STARLINK-1304, 45376

Orbit data source: Space-Track

STARLINK-1304, 45376 is a payload satellite owned by SpaceX/Seattle (US) in LEO that was launched on Wed, 18 Mar 2020 UTC via an FALCON 9 launch vehicle from the Air Force Eastern Test Range (AFETR). Payloads include a variety of satellites, spacecraft, and rockets equipped with specific instruments for various scientific and technological missions. These include communications satellites like Starlink; space stations such as the ISS; scientific satellites like the Hubble; Earth observation satellites from companies like Planet Labs, Umbra, and HawkEye 360; GPS; miniature CubeSats for education and research; and military/defense satellites.

Loading next visibility...
STARLINK-1304 details
Identifier
45376, 2020-019S
Orbit
LEO
Last TLE update15 hours ago
Origin
Flag of USSpaceX/Seattle (US)
ManufacturerSpaceX/Seattle
MissionOperational Commercial Communications
Bus & MotorSTARLINK, Unknown motor
Mass260 kg wet, ~248 kg dry
Launch date (UTC)
2020-03-18 (5 years ago)
Launch vehicle
FALCON 9
Launch site
Air Force Eastern Test Range (AFETR)
Object type
Payload
Rocket body
Debris
Shape & HBRBox + 1 Pan, 8.86 m
Radar Cross Section13.562 m², Large (>1 m²)

Expand to show TLE details & history

TLE from 15 hours ago
0 STARLINK-1304
1 45376U 20019S   24361.30855226  .00017991  00000-0  12222-2 0  9992
2 45376  53.0569 334.5887 0001965  95.9000 264.2213 15.06443234263651
Epoch: 2024-12-26T07:24Z
Definitive object data (Epoch: 2024-12-26T07:24:18.915Z)
Latitude-0.00002°
Longitude128.22007°
Altitude548.096 km
Speed7.589 km/s
True Right ascension22h 18m 21s
True Declination0° 00' 00"
Sunlit
Object was in daylight at TLE epoch
Visualization TLE readout
Latitude40.81733°
Longitude-94.80145°
Altitude549.562 km
Speed7.593 km/s
Apparent Right ascension08h 30m 59s
Apparent Declination2° 33' 58"
Sunlit
Object is in full shadow
Visualization observer readout
Local Sidereal Time21:40:29
Azimuth24.786° NE
Elevation-44.63°
Doppler factor1
Orbital elements
Apogee altitude548.71 km
Perigee altitude545.989 km
Semi-major axis6,925.486 km
Eccentricity0.0001965
Inclination53.0569°
RAAN334.5887°
Arg. of periapsis95.9°
True anomaly264.1989°
Mean anomaly264.2213°
Eccentric anomaly264.2101°
Mean motion3.76589 °/min
BSTAR0.0012222
Orbital period95.59 mins
Loading maneuver chart data...
Loading historical data...
Loading historical data...
Loading historical data...
Loading historical data...
Loading historical data...
Loading historical data...
Loading historical data...

STARLINK-1304 Visibility forecast

Observer location: undefined°, undefined

Span
Click to sort rows by Start time (UTC) header in descending order
Start Az.
Max El. time (UTC)
Max El. Az.
Max El.
End time (UTC)
End Az.
7 mins2024-12-27 01:05:21.942Z223.681° SW2024-12-27 01:09:21.942Z86.572° E43.381°2024-12-27 01:12:21.942Z53.349° ENE
4 mins2024-12-27 02:47:21.942Z304.618° NW2024-12-27 02:49:21.942Z346.802° N20.813°2024-12-27 02:51:21.942Z21.537° NNE
4 mins2024-12-27 06:09:21.942Z357.935° N2024-12-27 06:10:21.942Z17.226° NNE18.382°2024-12-27 06:13:21.942Z65.99° ENE
6 mins2024-12-27 07:48:21.942Z316.236° NNW2024-12-27 07:50:21.942Z6.32° NNE43.858°2024-12-27 07:54:21.942Z124.967° SE
|